Weather History for Dallas Redbird, TX

Change the Weather History Date:

Monday, March 25, 2013

  Actual Average Record
Temperature  
Mean Temperature 42 °F -  
Max Temperature 55 °F 66 °F 84 °F (2011)
Min Temperature 30 °F 48 °F 30 °F (2013)
Degree Days  
Heating Degree Days 22    
Moisture  
Dew Point 17 °F    
Average Humidity 37    
Maximum Humidity 67    
Minimum Humidity 19    
Precipitation  
Precipitation 0.00 in - - ()
Sea Level Pressure  
Sea Level Pressure 30.31 in    
Wind  
Wind Speed 11 mph (NNW)    
Max Wind Speed 20 mph    
Max Gust Speed 29 mph    
Visibility 10 miles    
Events      
Averages and records for this station are not official NWS values.
T = Trace of Precipitation, MM = Missing Value Source: NWS Daily Summary

Daily Weather History Graph

Daily Weather History Graph

Search for Another Location

Airport:

Trip Planner

Search our weather history database for the weather conditions in past years. The results will help you decide how hot, cold, wet, or windy it might be!

Date:

Astronomy

Mar. 25, 2013 Rise Set
Actual Time 7:24 AM CDT 7:42 PM CDT
Civil Twilight 6:59 AM CDT 8:07 PM CDT
Nautical Twilight 6:30 AM CDT 8:36 PM CDT
Astronomical Twilight 6:01 AM CDT 9:05 PM CDT
Moon 6:18 PM CDT (3/25) 6:03 AM CDT (3/25)
Length of Visible Light 13h 07m
Length of Day
12h 18m
Waxing Gibbous, 96% of the Moon is Illuminated
Mar 25
Waxing Gibbous
Mar 27
Full
Apr 2
Last Quarter
Apr 10
New
Apr 18
First Quarter

Hourly Weather History & Observations

Time (CDT) Temp. Windchill Dew Point Humidity Pressure Visibility Wind Dir Wind Speed Gust Speed Precip Events Conditions
12:53 AM 39.9 °F 33.4 °F 18.0 °F 41% 30.19 in 10.0 mi North 10.4 mph - N/A   Clear
1:53 AM 37.9 °F 30.9 °F 18.0 °F 45% 30.22 in 10.0 mi North 10.4 mph - N/A   Clear
2:53 AM 37.9 °F 30.5 °F 18.0 °F 45% 30.24 in 10.0 mi North 11.5 mph 19.6 mph N/A   Clear
3:53 AM 37.0 °F 31.6 °F 18.0 °F 46% 30.25 in 10.0 mi North 6.9 mph - N/A   Clear
4:53 AM 35.1 °F 30.1 °F 19.0 °F 52% 30.26 in 10.0 mi NNW 5.8 mph - N/A   Clear
6:53 AM 30.9 °F 24.3 °F 21.0 °F 67% 30.30 in 10.0 mi NW 6.9 mph - N/A   Clear
7:53 AM 32.0 °F 27.5 °F 21.9 °F 66% 30.32 in 10.0 mi West 4.6 mph - N/A   Clear
8:53 AM 37.0 °F 30.4 °F 21.9 °F 54% 30.35 in 10.0 mi WNW 9.2 mph - N/A   Clear
9:53 AM 43.0 °F 36.4 °F 21.0 °F 42% 30.36 in 10.0 mi NW 12.7 mph - N/A   Clear
10:53 AM 46.0 °F 39.6 °F 21.0 °F 37% 30.37 in 10.0 mi North 15.0 mph - N/A   Clear
11:53 AM 48.9 °F - 19.9 °F 32% 30.37 in 10.0 mi North 17.3 mph 23.0 mph N/A   Clear
1:53 PM 52.0 °F - 18.0 °F 26% 30.34 in 10.0 mi NW 17.3 mph 24.2 mph N/A   Clear
2:53 PM 53.1 °F - 16.0 °F 23% 30.31 in 10.0 mi NNW 19.6 mph 28.8 mph N/A   Clear
3:53 PM 54.0 °F - 15.1 °F 22% 30.29 in 10.0 mi NNW 12.7 mph 24.2 mph N/A   Clear
4:53 PM 55.0 °F - 12.9 °F 19% 30.28 in 10.0 mi NW 17.3 mph 23.0 mph N/A   Clear
5:53 PM 54.0 °F - 14.0 °F 21% 30.28 in 10.0 mi NW 18.4 mph - N/A   Clear
6:53 PM 51.1 °F - 14.0 °F 23% 30.30 in 10.0 mi NNW 11.5 mph - N/A   Clear
7:53 PM 48.0 °F - 15.1 °F 27% 30.32 in 10.0 mi NNW 10.4 mph - N/A   Clear
8:53 PM 45.0 °F 41.2 °F 16.0 °F 31% 30.35 in 10.0 mi NNW 6.9 mph - N/A   Clear
9:53 PM 44.1 °F 40.8 °F 15.1 °F 31% 30.38 in 10.0 mi NNW 5.8 mph - N/A   Clear
10:53 PM 43.0 °F 40.3 °F 15.1 °F 32% 30.40 in 10.0 mi North 4.6 mph - N/A   Clear
11:53 PM 42.1 °F 40.2 °F 15.1 °F 34% 30.40 in 10.0 mi North 3.5 mph - N/A   Clear